DELTA 1 DEB

Satellite information

Favourite Embed

Satellite Type and Status

DEBRISIN ORBIT

Key statistics

Satellite DELTA 1 DEB at a glance.

Uptime

17993

Days in orbit

Revolutions

≈ 12.5

Per day

Orbit

SSO

Sun Synchronous Orbit

Inclination

101.9

Latest

Satellite identification and parameters

Extended collection of information and parameters for DELTA 1 DEB.

Object identification

Identified? True

Debris? True

Object name: DELTA 1 DEB

International designator: 1976-077GA

Object number (NORAD): 40757

Object ID (CCSDS): 40757

Country: UNITED STATES OF AMERICA (US)

Current information (Y/N): Y

RCS size: SMALL

Orbital parameters

Period: 114.76 minutes

Inclination: 101.8799 deg

SMA: 7822.646 km

Apoapsis: 1447.313 km

Periapsis: 1441.708 km

RAAN: 267.228 deg

Eccentricy: 0.00035826

Argument of periapsis: 245.501 deg

Mean anomaly: 114.5689 deg

Mean motion: 12.54793566 rev/day

Mean motion (dot): 0.00000051 rev/day2

B* drag term: 0.00059556288 1/REarth

Two-line elements (TLE)

Creation date: Oct. 26, 2025, 10:54 a.m.

Reference frame: TEME

Reference center: EARTH

Epoch: Oct. 26, 2025, 4:49 a.m. UTC

TLE line 0: 0 DELTA 1 DEB

TLE line 1: 1 40757U 76077GA 25299.20070865 .00000051 00000-0 59556-3 0 9994

TLE line 2: 2 40757 101.8799 267.2280 0003583 245.5010 114.5689 12.54793566547450

Live tracking on map

Real-time ground track for satellite DELTA 1 DEB.

In-orbit conjunctions

A list of the most updated potential collisions computed for object DELTA 1 DEB.

Target Orbit TCA Probability of collision Miss distance Type
COSMOS 1235 LEO 2025-04-10 02:57:11 0.0008207048 117.0 (m) PAYLOAD

Associated space launch

Meteorological satellite using radiometric imaging

DELTA 1 DEB was lifted into orbit during the mission ‘Delta 2310 | NOAA 5’, on board a Delta 2310 space rocket.

The launch took place on July 29, 1976, 5:07 p.m. from Space Launch Complex 2W.

For more information about the launch, click the button.

Launch to space Delta 2310 | NOAA 5
Delta 2310 | NOAA 5

Agency: N/A

Status: Launch Successful

Launch date: July 29, 1976, 5:07 p.m. UTC

Rocket: Delta 2310

Launch pad: Space Launch Complex 2W

Location: Vandenberg SFB, CA, USA

...

Latest news about this satellite

There are no fresh news available about this satellite. Check back as we update our databases every day.


Newsletter sign-up

Weekly statistics, charts and insights to help you stay on top of the space industry.